Find Starlink 32042

NORAD ID: 60108 Int'l Des: 2024-117 Owner: SPXS Country: US Constellation: starlink operational
LEOCIRCULAR

リアルタイム位置

3D地球を読み込み中...

Starlink 32042について

説明を読み込み中...

次回通過

Passes for default location (London). Set your location on the main map for personalized predictions.

高度履歴

Loading altitude history...

軌道要素

1 60108U 24117T 26139.52288358 .00000254 00000-0 20704-4 0 9990
2 60108 53.1613 67.9450 0001517 94.9741 265.1433 15.30184126107738
Epoch: May 19, 2026 • Age: 10 hours

現在のステータス

高度 478.6 km
速度 7.63 km/s
衛星直下点 43.04°N, 12.92°W
打ち上げ日 Jun 23, 2024
運用期間 1.9 years
タイプ internet

技術仕様

分類 Payload
質量 730.00 kg
乾燥質量 700.00 kg
総質量 730.00 kg
長さ 0.30 m
直径 4.10 m
スパン 29.00 m
形状 Box + pan
製造者 SPXS
バスタイプ Starlink V2M
フェーズステータス In Orbit
所有者/国 SPXS/US

Most Searched